Location: ???? ????
(31.2831°N, 45.5190°E)
Time: 09:50:23
(UTC+00:00)

X-37B - Pass Details

Date: 03 October 2021
Orbit: 385 x 389 km, 45.0° (Epoch: 13 October)

Event Time Altitude Azimuth Distance (km) Brightness Sun altitude
Exits shadow 00:52:48 12° 26° (NNE) 1,319 3.7 -26.3°
Drops below altitude 10° 00:53:38 10° 41° (NE) 1,410 4.1 -26.2°
Sets 00:56:48 0° 76° (ENE) 2,263 5.8 -25.5°
